Location: Poigny-la-Forêt
(48.6876°N, 1.7701°E)
Time: 11:08:14
(UTC+01:00)

Tiangong 2 - Visible Passes

Search period start: 19 March 2019 00:00
Search period end: 29 March 2019 00:00
Orbit: 379 x 390 km, 42.8° (Epoch: 18 March)

Date Brightness Start Highest point End Pass type
(mag) Time Alt. Az. Time Alt. Az. Time Alt. Az.
19 Mar 2.4 05:28:18 25° SSW 05:28:36 25° S 05:31:18 10° SE visible
20 Mar 3.9 04:31:37 13° SE 04:31:37 13° SE 04:32:04 10° ESE visible
20 Mar 3.0 06:03:51 12° SW 06:05:30 17° SSW 06:07:38 10° SSE visible
21 Mar 3.1 05:07:14 18° SSE 05:07:14 18° SSE 05:08:44 10° SE visible
22 Mar 3.3 05:42:57 12° SSW 05:43:02 12° SSW 05:44:20 10° S visible
